Regional Weather Roundup
Issued by NWS

Home | Current Version | Previous Version | Text Only | Print | Product List | Glossary On
Versions: 1 2 3 4 5 6 7 8 9 10 11 12 13 14 15 16 17 18 19 20 21 22 23 24 25 26 27 28 29 30 31 32 33 34 35 36 37 38 39 40 41 42 43 44 45 46 47 48 49 50
000
ASUS46 KPQR 261310
RWROR

OREGON REGIONAL WEATHER ROUNDUP
NATIONAL WEATHER SERVICE PORTLAND OR
500 AM PST WED NOV 26 2014

NOTE: "FAIR" INDICATES FEW OR NO CLOUDS BELOW 12,000 FEET WITH
NO SIGNIFICANT WEATHER AND/OR OBSTRUCTIONS TO VISIBILITY.

ORZ001>013-261400-
NORTHWEST OREGON


CITY           SKY/WX    TMP DP  RH WIND       PRES   REMARKS
ASTORIA        CLOUDY    56  53  90 S8        30.18F
NEWPORT        FOG       52  52 100 CALM      30.25F VSB 3/4
PORTLAND       CLOUDY    57  53  86 S6        30.23F
VANCOUVER WA   CLOUDY    56  52  86 CALM      30.22F
SCAPPOOSE      CLOUDY    53  52  96 CALM      30.21F
HILLSBORO      CLOUDY    54  52  93 CALM      30.21F
AURORA         CLOUDY    55  50  83 CALM      30.23F
MCMINNVILLE    PTCLDY    53  50  89 CALM      30.23F
SALEM          MOCLDY    54  50  86 S7        30.22F
CORVALLIS      CLOUDY    46  43  87 CALM      30.24F VSB 1/4
EUGENE         CLEAR     47  45  93 S10       30.25F
$$

ORZ021-028-261400-
SOUTHWEST OREGON


CITY           SKY/WX    TMP DP  RH WIND       PRES   REMARKS
NORTH BEND     CLOUDY    52 N/A N/A SE5       30.26S
BROOKINGS      CLEAR     48  48 100 CALM      30.26S
ROSEBURG       FOG       47  46  97 CALM      30.28F VSB 1/2
SEXTON SUMMIT  CLEAR     46  44  93 S15       30.28F
MEDFORD        CLOUDY    45  45 100 N3        30.32F FOG
$$

ORZ014>016-041-261400-
COLUMBIA GORGE


CITY           SKY/WX    TMP DP  RH WIND       PRES   REMARKS
TROUTDALE      CLOUDY    55  51  86 CALM      30.22F
THE DALLES     CLOUDY    55  45  68 E6        30.20F
$$

ORZ029>031-041-044-049-050-061>064-502-503-505>511-261400-
EASTERN OREGON


CITY           SKY/WX    TMP DP  RH WIND       PRES   REMARKS
REDMOND        CLEAR     33  32  96 CALM      30.27F
BEND           CLEAR     37  32  81 CALM      30.28F
PRINEVILLE     CLEAR     30  30 100 CALM      30.29F
KLAMATH FALLS  FOG       25  23  92 CALM      30.36F VSB 1/2
LAKEVIEW       PTCLDY    25  21  86 N7        30.40S WCI  17
HERMISTON      MOCLDY    57  42  57 SW14      30.18S
PENDLETON      CLOUDY    52  40  63 S10       30.21S
JOHN DAY       PTCLDY    40  37  87 E9        30.31R WCI  34
MEACHAM        CLOUDY    46  38  73 VRB3      30.24F
LA GRANDE      CLOUDY    48  34  57 SW5       30.25S
BAKER CITY     PTCLDY    32  31  96 W3        30.28
BURNS          PTCLDY    28  26  92 CALM      30.35S
ROME             N/A     40  30  67 SE9       30.34R WCI  34
ONTARIO        MOCLDY    38  35  89 N5        30.32R WCI  34
$$


USA.gov is the U.S. government's official web portal to all federal, state and local government web resources and services.